| time (UTC) | temp F | wind direction | speed MPH | gust MPH | rain 1hr in | rain 24hr in | rain mn in | humidity % | barometer mb |
| 20260509075111 | 70 | 196 | 3.0 | 5.0 | 0.00 | 0.07 | 0.00 | 89 | 1012.3 |
| 20260509074113 | 70 | 176 | 3.0 | 6.0 | 0.00 | 0.07 | 0.00 | 89 | 1012.5 |
| 20260509073212 | 70 | 175 | 2.0 | 5.0 | 0.00 | 0.07 | 0.00 | 87 | 1012.7 |
| 20260509071213 | 70 | 180 | 1.0 | 2.0 | 0.00 | 0.07 | 0.00 | 88 | 1013.4 |
| 20260509070310 | 70 | 225 | 1.0 | 2.0 | 0.00 | 0.07 | 0.00 | 88 | 1013.7 |
| 20260509070213 | 70 | 223 | 1.0 | 3.0 | 0.00 | 0.07 | 0.00 | 88 | 1013.7 |
| 20260509065211 | 69 | 202 | 0.0 | 2.0 | 0.00 | 0.07 | 0.00 | 88 | 1013.8 |
| 20260509064213 | 69 | 225 | 0.0 | 1.0 | 0.00 | 0.07 | 0.00 | 88 | 1013.7 |
| 20260509063312 | 70 | 244 | 1.0 | 2.0 | 0.00 | 0.07 | 0.00 | 88 | 1013.5 |
| 20260509061412 | 69 | 202 | 0.0 | 1.0 | 0.00 | 0.07 | 0.00 | 87 | 1013.4 |
| 20260509060413 | 69 | 181 | 0.0 | 4.0 | 0.00 | 0.07 | 0.00 | 86 | 1013.4 |
| 20260509055413 | 69 | 175 | 2.0 | 3.0 | 0.00 | 0.07 | 0.00 | 85 | 1013.3 |
| 20260509054510 | 70 | 180 | 0.0 | 0.0 | 0.00 | 0.07 | 0.00 | 83 | 1014.2 |
| 20260509053512 | 70 | 225 | 0.0 | 0.0 | 0.00 | 0.07 | 0.00 | 84 | 1014.3 |
| 20260509053413 | 71 | 225 | 0.0 | 0.0 | 0.00 | 0.07 | 0.00 | 84 | 1014.2 |
| 20260509052310 | 71 | 180 | 1.0 | 1.0 | 0.00 | 0.07 | 0.00 | 84 | 1014.2 |
| 20260509051311 | 70 | 301 | 2.0 | 4.0 | 0.00 | 0.07 | 0.00 | 82 | 1014.8 |
| 20260509051211 | 70 | 326 | 3.0 | 4.0 | 0.00 | 0.07 | 0.00 | 82 | 1014.9 |
| 20260509044410 | 71 | 184 | 3.0 | 5.0 | 0.00 | 0.07 | 0.07 | 81 | 1013.0 |
| 20260509043410 | 72 | 194 | 1.0 | 5.0 | 0.00 | 0.07 | 0.07 | 79 | 1013.3 |
| 20260509043310 | 72 | 180 | 0.0 | 1.0 | 0.00 | 0.07 | 0.07 | 80 | 1013.3 |
| 20260509042310 | 72 | 168 | 2.0 | 5.0 | 0.00 | 0.07 | 0.07 | 80 | 1013.3 |
| 20260509041309 | 72 | 135 | 3.0 | 6.0 | 0.00 | 0.07 | 0.07 | 80 | 1013.1 |
| 20260509035409 | 72 | 129 | 4.0 | 7.0 | 0.00 | 0.07 | 0.07 | 78 | 1012.9 |
| 20260509034408 | 72 | 156 | 3.0 | 4.0 | 0.00 | 0.07 | 0.07 | 79 | 1013.3 |
| 20260509033410 | 72 | 135 | 0.0 | 0.0 | 0.00 | 0.07 | 0.07 | 79 | 1013.7 |
| 20260509032410 | 72 | 135 | 0.0 | 0.0 | 0.00 | 0.07 | 0.07 | 79 | 1013.6 |
| 20260509031410 | 72 | 168 | 0.0 | 2.0 | 0.00 | 0.07 | 0.07 | 79 | 1013.5 |
| 20260509025510 | 72 | 165 | 0.0 | 0.0 | 0.00 | 0.07 | 0.07 | 77 | 1013.0 |
| 20260509024509 | 72 | 144 | 5.0 | 8.0 | 0.00 | 0.07 | 0.07 | 78 | 1012.6 |
| 20260509023510 | 72 | 180 | 2.0 | 5.0 | 0.00 | 0.07 | 0.07 | 77 | 1012.2 |
| 20260509020609 | 73 | 136 | 4.0 | 7.0 | 0.00 | 0.07 | 0.07 | 76 | 1011.8 |
| 20260509015609 | 73 | 170 | 2.0 | 5.0 | 0.00 | 0.07 | 0.07 | 75 | 1011.8 |
| 20260509014608 | 73 | 167 | 2.0 | 6.0 | 0.00 | 0.07 | 0.07 | 75 | 1011.8 |
| 20260509013611 | 73 | 197 | 2.0 | 4.0 | 0.00 | 0.07 | 0.07 | 75 | 1011.9 |
| 20260509012611 | 73 | 180 | 0.0 | 2.0 | 0.00 | 0.07 | 0.07 | 74 | 1011.8 |
| 20260509010710 | 73 | 200 | 1.0 | 3.0 | 0.00 | 0.07 | 0.07 | 73 | 1011.8 |
| 20260509005711 | 74 | 195 | 0.0 | 3.0 | 0.00 | 0.07 | 0.07 | 72 | 1011.7 |
| 20260509005610 | 74 | 202 | 0.0 | 0.0 | 0.00 | 0.07 | 0.07 | 72 | 1011.5 |
| 20260509004609 | 74 | 175 | 1.0 | 3.0 | 0.00 | 0.07 | 0.07 | 71 | 1011.3 |
| 20260509002612 | 75 | 153 | 5.0 | 8.0 | 0.00 | 0.07 | 0.07 | 68 | 1011.1 |
| 20260509001708 | 75 | 150 | 3.0 | 8.0 | 0.00 | 0.07 | 0.07 | 67 | 1011.0 |
| 20260508235809 | 75 | 174 | 2.0 | 4.0 | 0.00 | 0.07 | 0.07 | 67 | 1011.2 |
| 20260508233809 | 76 | 191 | 2.0 | 6.0 | 0.00 | 0.07 | 0.07 | 66 | 1011.6 |
| 20260508232711 | 76 | 189 | 2.0 | 4.0 | 0.00 | 0.07 | 0.07 | 65 | 1011.5 |
| 20260508231809 | 76 | 147 | 3.0 | 6.0 | 0.00 | 0.07 | 0.07 | 65 | 1011.4 |
| 20260508230811 | 75 | 169 | 2.0 | 5.0 | 0.00 | 0.07 | 0.07 | 63 | 1011.6 |
| 20260508225907 | 76 | 154 | 3.0 | 8.0 | 0.00 | 0.07 | 0.07 | 63 | 1011.7 |
| 20260508224910 | 76 | 197 | 3.0 | 7.0 | 0.00 | 0.07 | 0.07 | 64 | 1011.6 |
| 20260508223909 | 77 | 173 | 3.0 | 6.0 | 0.00 | 0.07 | 0.07 | 62 | 1011.7 |
| 20260508223008 | 78 | 195 | 2.0 | 7.0 | 0.00 | 0.07 | 0.07 | 62 | 1011.6 |
| 20260508222008 | 78 | 200 | 3.0 | 7.0 | 0.00 | 0.07 | 0.07 | 61 | 1011.7 |
| 20260508221910 | 78 | 197 | 2.0 | 6.0 | 0.00 | 0.07 | 0.07 | 61 | 1011.6 |
| 20260508220911 | 79 | 224 | 4.0 | 7.0 | 0.00 | 0.07 | 0.07 | 59 | 1011.4 |
| 20260508215909 | 79 | 152 | 5.0 | 8.0 | 0.00 | 0.07 | 0.07 | 59 | 1011.5 |
| 20260508214908 | 79 | 207 | 2.0 | 6.0 | 0.00 | 0.07 | 0.07 | 58 | 1011.5 |
| 20260508212010 | 76 | 164 | 3.0 | 6.0 | 0.00 | 0.07 | 0.07 | 61 | 1011.8 |
| 20260508205108 | 74 | 170 | 4.0 | 8.0 | 0.00 | 0.07 | 0.07 | 65 | 1012.5 |
| 20260508204109 | 74 | 200 | 3.0 | 5.0 | 0.00 | 0.07 | 0.07 | 64 | 1012.9 |
| 20260508203109 | 74 | 196 | 2.0 | 7.0 | 0.00 | 0.07 | 0.07 | 64 | 1013.7 |
| 20260508202109 | 75 | 208 | 2.0 | 3.0 | 0.00 | 0.07 | 0.07 | 63 | 1013.7 |
| 20260508201208 | 76 | 208 | 2.0 | 4.0 | 0.00 | 0.07 | 0.07 | 61 | 1013.7 |
| 20260508200210 | 76 | 176 | 3.0 | 7.0 | 0.00 | 0.07 | 0.07 | 60 | 1013.7 |
| 20260508200107 | 77 | 177 | 3.0 | 6.0 | 0.00 | 0.07 | 0.07 | 60 | 1013.7 |
| 20260508194210 | 77 | 199 | 1.0 | 3.0 | 0.00 | 0.07 | 0.07 | 60 | 1013.7 |
| 20260508193309 | 77 | 195 | 3.0 | 5.0 | 0.00 | 0.07 | 0.07 | 60 | 1013.7 |
| 20260508192408 | 78 | 172 | 2.0 | 4.0 | 0.00 | 0.07 | 0.07 | 59 | 1013.9 |
| 20260508192311 | 78 | 182 | 2.0 | 5.0 | 0.00 | 0.07 | 0.07 | 58 | 1013.9 |
| 20260508191310 | 80 | 214 | 2.0 | 3.0 | 0.00 | 0.07 | 0.07 | 55 | 1013.9 |
| 20260508191210 | 80 | 186 | 3.0 | 7.0 | 0.00 | 0.07 | 0.07 | 56 | 1013.9 |
| 20260508190309 | 80 | 204 | 4.0 | 8.0 | 0.00 | 0.07 | 0.07 | 55 | 1013.9 |
| 20260508185310 | 79 | 184 | 3.0 | 5.0 | 0.00 | 0.07 | 0.07 | 57 | 1013.9 |
| 20260508184309 | 78 | 156 | 3.0 | 7.0 | 0.00 | 0.07 | 0.07 | 58 | 1013.9 |
| 20260508183408 | 78 | 206 | 3.0 | 5.0 | 0.00 | 0.07 | 0.07 | 57 | 1014.0 |
| 20260508182507 | 77 | 170 | 1.0 | 4.0 | 0.00 | 0.07 | 0.07 | 58 | 1014.3 |
| 20260508181509 | 77 | 188 | 3.0 | 4.0 | 0.00 | 0.07 | 0.07 | 58 | 1014.6 |
| 20260508180607 | 77 | 194 | 3.0 | 6.0 | 0.00 | 0.07 | 0.07 | 58 | 1014.8 |
| 20260508175608 | 78 | 215 | 4.0 | 7.0 | 0.00 | 0.07 | 0.07 | 58 | 1014.9 |
| 20260508174610 | 78 | 216 | 4.0 | 7.0 | 0.00 | 0.07 | 0.07 | 56 | 1014.8 |
| 20260508173623 | 77 | 182 | 1.0 | 3.0 | 0.00 | 0.07 | 0.07 | 57 | 1015.1 |
| 20260508171710 | 74 | 164 | 3.0 | 7.0 | 0.00 | 0.07 | 0.07 | 59 | 1015.2 |
| 20260508165808 | 74 | 196 | 0.0 | 2.0 | 0.00 | 0.07 | 0.07 | 58 | 1015.9 |
| 20260508164809 | 74 | 184 | 3.0 | 7.0 | 0.00 | 0.07 | 0.07 | 59 | 1015.9 |
| 20260508163810 | 73 | 199 | 3.0 | 4.0 | 0.00 | 0.07 | 0.07 | 59 | 1016.3 |
| 20260508162908 | 73 | 163 | 4.0 | 10.0 | 0.00 | 0.07 | 0.07 | 61 | 1016.5 |
| 20260508161911 | 71 | 171 | 2.0 | 3.0 | 0.00 | 0.07 | 0.07 | 62 | 1016.7 |
| 20260508160910 | 70 | 191 | 1.0 | 2.0 | 0.00 | 0.07 | 0.07 | 64 | 1016.8 |
| 20260508155909 | 68 | 138 | 4.0 | 9.0 | 0.00 | 0.07 | 0.07 | 64 | 1017.0 |
| 20260508153910 | 68 | 170 | 3.0 | 7.0 | 0.00 | 0.07 | 0.07 | 64 | 1017.3 |
| 20260508152909 | 68 | 160 | 0.0 | 1.0 | 0.00 | 0.07 | 0.07 | 65 | 1017.5 |
| 20260508151910 | 68 | 194 | 1.0 | 4.0 | 0.00 | 0.07 | 0.07 | 65 | 1017.4 |
| 20260508150910 | 68 | 186 | 2.0 | 4.0 | 0.00 | 0.07 | 0.07 | 66 | 1017.5 |
| 20260508150008 | 68 | 201 | 3.0 | 5.0 | 0.00 | 0.07 | 0.07 | 69 | 1017.5 |
| 20260508145009 | 67 | 178 | 1.0 | 5.0 | 0.00 | 0.07 | 0.07 | 72 | 1017.7 |
| 20260508144009 | 66 | 180 | 0.0 | 0.0 | 0.00 | 0.07 | 0.07 | 71 | 1017.6 |
| 20260508143108 | 66 | 176 | 1.0 | 3.0 | 0.00 | 0.07 | 0.07 | 72 | 1017.7 |
| 20260508142109 | 66 | 183 | 3.0 | 6.0 | 0.00 | 0.07 | 0.07 | 72 | 1017.8 |
| 20260508141110 | 65 | 171 | 2.0 | 4.0 | 0.00 | 0.07 | 0.07 | 74 | 1017.6 |
| 20260508135209 | 64 | 169 | 2.0 | 4.0 | 0.00 | 0.07 | 0.07 | 81 | 1018.0 |
| 20260508133208 | 62 | 147 | 2.0 | 5.0 | 0.00 | 0.07 | 0.07 | 89 | 1017.9 |
| 20260508132207 | 61 | 145 | 2.0 | 3.0 | 0.02 | 0.07 | 0.07 | 92 | 1017.7 |
| 20260508131209 | 60 | 168 | 1.0 | 3.0 | 0.03 | 0.07 | 0.07 | 93 | 1018.1 |
| 20260508130307 | 60 | 157 | 0.0 | 0.0 | 0.03 | 0.07 | 0.07 | 93 | 1018.1 |
| 20260508125309 | 60 | 157 | 0.0 | 3.0 | 0.03 | 0.07 | 0.07 | 91 | 1017.9 |
| 20260508123309 | 60 | 165 | 1.0 | 2.0 | 0.03 | 0.07 | 0.07 | 89 | 1018.0 |
| 20260508122309 | 60 | 202 | 0.0 | 0.0 | 0.01 | 0.05 | 0.05 | 89 | 1018.8 |
| 20260508121408 | 60 | 189 | 2.0 | 4.0 | 0.00 | 0.04 | 0.04 | 90 | 1018.3 |
| 20260508114509 | 61 | 168 | 0.0 | 1.0 | 0.01 | 0.04 | 0.04 | 95 | 1018.3 |
| 20260508113508 | 61 | 180 | 0.0 | 2.0 | 0.01 | 0.04 | 0.04 | 95 | 1018.3 |
| 20260508112509 | 60 | 202 | 0.0 | 0.0 | 0.01 | 0.04 | 0.04 | 94 | 1018.2 |
| 20260508111509 | 61 | 202 | 0.0 | 0.0 | 0.01 | 0.04 | 0.04 | 95 | 1017.9 |
| 20260508110508 | 61 | 142 | 1.0 | 3.0 | 0.01 | 0.04 | 0.04 | 94 | 1017.5 |
| 20260508105607 | 61 | 126 | 0.0 | 2.0 | 0.00 | 0.03 | 0.03 | 94 | 1017.8 |
| 20260508105508 | 61 | 56 | 1.0 | 4.0 | 0.00 | 0.03 | 0.03 | 94 | 1017.9 |
| 20260508104508 | 61 | 247 | 0.0 | 0.0 | 0.00 | 0.03 | 0.03 | 94 | 1019.0 |
| 20260508101509 | 61 | 155 | 0.0 | 0.0 | 0.00 | 0.03 | 0.03 | 93 | 1017.1 |
| 20260508095610 | 60 | 175 | 1.0 | 3.0 | 0.00 | 0.03 | 0.03 | 92 | 1017.2 |
| 20260508094707 | 60 | 157 | 0.0 | 1.0 | 0.01 | 0.03 | 0.03 | 92 | 1017.3 |
| 20260508091709 | 60 | 180 | 0.0 | 0.0 | 0.03 | 0.03 | 0.03 | 89 | 1017.5 |
| 20260508090807 | 60 | 152 | 0.0 | 1.0 | 0.03 | 0.03 | 0.03 | 89 | 1017.6 |
| 20260508085810 | 60 | 180 | 0.0 | 0.0 | 0.03 | 0.03 | 0.03 | 87 | 1017.8 |
| 20260508084810 | 61 | 135 | 0.0 | 0.0 | 0.03 | 0.03 | 0.02 | 85 | 1017.6 |
| 20260508084708 | 61 | 135 | 0.0 | 0.0 | 0.02 | 0.02 | 0.02 | 85 | 1017.6 |
| 20260508082707 | 62 | 225 | 0.0 | 0.0 | 0.00 | 0.00 | 0.00 | 80 | 1017.7 |
| 20260508081708 | 62 | 144 | 3.0 | 5.0 | 0.00 | 0.00 | 0.00 | 82 | 1017.4 |
| 20260508080709 | 63 | 177 | 0.0 | 2.0 | 0.00 | 0.00 | 0.00 | 77 | 1018.5 |
| 20260508075808 | 63 | 157 | 0.0 | 0.0 | 0.00 | 0.00 | 0.00 | 75 | 1018.5 |